Regional Weather Roundup
Issued by NWS

Home | Current Version | Previous Version | Text Only | Print | Product List | Glossary Off
Versions: 1 2 3 4 5 6 7 8 9 10 11 12 13 14 15 16 17 18 19 20 21 22 23 24 25 26 27 28 29 30 31 32 33 34 35 36 37 38 39 40 41 42 43 44 45 46 47 48 49

000
ASUS45 KSLC 212210
RWRUT

UTAH REGIONAL WEATHER ROUNDUP
NATIONAL WEATHER SERVICE SALT LAKE CITY UT
400 PM MDT SUN SEP 21 2014

UTZ001>011-023>025-212300-

NORTHERN UTAH

CITY           SKY/WX    TMP DP  RH WIND       PRES   REMARKS
HILL AFB       LGT RAIN  59  55  88 E12       30.17F
LOGAN          LGT RAIN  62  57  83 S6        30.17S
OGDEN          LGT RAIN  61  60  97 E8        30.18F
PROVO AIRPORT  MOSUNNY   64  57  77 VRB5      30.19F
SALT LAKE CITY CLOUDY    63  60  90 N3        30.16F
VERNAL         PTSUNNY   69  54  58 NW6       30.19F
WENDOVER       PTSUNNY   70  52  52 SE6       30.13F
HEBER CITY     CLOUDY    59  54  82 CALM      30.24S
WEST JORDAN    MOSUNNY   63  59  88 S8        30.18F

$$

UTZ012>022-026-027-212300-

SOUTHERN UTAH

CITY           SKY/WX    TMP DP  RH WIND       PRES   REMARKS
BRYCE CANYON   MOSUNNY   63  52  67 NW6       30.31F
CEDAR CITY     MOSUNNY   72  56  57 VRB5      30.17F
MILFORD        PTSUNNY   71  57  61 NE7       30.14F
MOAB/CYNLANDS  MOSUNNY   69  61  75 N9        30.17R
PRICE          CLOUDY    63  56  78 E6        30.25F
ST GEORGE      CLOUDY    82  57  42 N3        30.01F
KANAB            N/A     72  57  60 NE3       30.17F

$$

REGIONAL REPORTS     COLORADO/ARIZONA

CITY           SKY/WX    TMP DP  RH WIND       PRES   REMARKS
CRAIG, CO      CLOUDY    65  52  62 E15       30.30F
GRAND JUNCTION MOSUNNY   77  53  43 E10       30.12F
RIFLE          MOSUNNY   76  48  37 E13       30.21F
MONTROSE       MOSUNNY   80  49  33 E6        30.19F
CORTEZ         MOSUNNY   78  48  34 S14G22    30.21F
PAGE, AZ       PTSUNNY   80  56  43 N5        30.10F
GRAND CANYON   MOSUNNY   75  48  38 SW15G21   30.25S
KINGMAN        SUNNY     89  41  18 S14G23    30.02F
FLAGSTAFF      SUNNY     72  44  36 SW10G24   30.28F

$$

REGIONAL REPORTS    NEVADA/IDAHO/WYOMING

CITY           SKY/WX    TMP DP  RH WIND       PRES   REMARKS
LAS VEGAS, NV  MOSUNNY   89  54  30 S7        29.89F
ELY            CLOUDY    69  49  48 SE13      30.15F
ELKO           MOSUNNY   72  48  42 NE7       30.11F
POCATELLO, ID  MOSUNNY   74  47  38 S24G30    30.13R
BURLEY         CLOUDY    66  55  67 SW9       30.11R
EVANSTON, WY   LGT RAIN  52  50  93 E7        30.31F
ROCK SPRINGS   CLOUDY    64  47  53 SW14      30.31F

$$



USA.gov is the U.S. government's official web portal to all federal, state and local government web resources and services.